Retour au catalogue

BADR 7

ActifCommunicationsGEO
NORAD 41029·PAYLOAD·🇦🇪 UAE🇸🇦 Saudi Arabia

Lancé Nov 10, 2015 depuis Guiana Space Centre

Loading…

TLE

FraisSource: Space-Track

Époque: Sep 14, 2026, 13:55 UTC

1 41029U 15065B   26257.58030104  .00000137  00000-0  00000-0 0  9997
2 41029   0.0349 225.9572 0006304 353.2609   9.2311  1.00271433 39668

Suivez BADR 7 en temps réel avec AllMySat

Download on the App Store